Temperature
2 2 2 2 2 2 2 2 2 1 1 2 2 3 3 3 3 3 3 3 3 3 3 3 3 3 3 3 3 3 3 4 4 4 4 4 4 4
2 2 2 2 2 2 2 2 2 1 1 1 2 2 2 2 2 2 2 2 3 3 3 2 2 2 2 3 3 3 3 3 3 3 3 4 4 4
1 1 2 2 1 1 1 1 1 1 1 1 1 2 2 2 2 2 2 2 2 2 2 2 2 2 2 2 2 2 2 3 3 3 3 3 3 4
1 1 1 1 1 1 1 1 1 1 0 1 1 1 1 1 1 1 1 1 1 1 1 1 1 1 1 1 2 2 2 2 2 2 3 3 3 3
0 1 1 1 1 1 1 1 0 0 0 0 0 1 1 1 1 1 1 1 1 1 1 1 1 1 1 1 1 1 1 2 2 2 2 2 3 3
-0 0 0 0 0 0 0 0 0 0 -0 -0 -0 -0 -0 -0 -0 -0 -0 0 0 0 0 0 0 0 0 0 1 1 1 1 1 1 2 2 2 3
-0 -0 -0 -0 -0 -0 -0 -0 -0 -0 -0 -1 -1 -1 -1 -1 -1 -1 -1 -1 -1 -1 -0 -0 0 0 0 0 0 0 1 1 1 1 1 2 2 2
-1 -1 -1 -1 -1 -1 -1 -1 -1 -1 -1 -1 -1 -1 -1 -1 -1 -1 -1 -1 -1 -1 -1 -1 -0 -0 0 0 0 0 0 0 1 1 1 1 2 2
-1 -1 -1 -1 -1 -1 -1 -1 -1 -1 -1 -1 -1 -1 -1 -1 -1 -1 -1 -2 -2 -1 -1 -1 -0 -0 -0 -0 -0 -0 -0 -0 0 0 0 1 1 1
-2 -2 -2 -2 -2 -2 -2 -1 -1 -1 -1 -1 -2 -2 -1 -1 -2 -2 -2 -2 -2 -1 -2 -2 -1 -1 -1 -0 -0 -1 -1 -1 -0 -0 -0 0 1 1
-2 -2 -2 -2 -2 -2 -2 -2 -2 -2 -2 -2 -2 -2 -2 -2 -2 -2 -2 -2 -2 -2 -1 -2 -1 -1 -1 -1 -1 -1 -1 -1 -1 -0 -0 -0 0 0
-3 -3 -3 -3 -3 -3 -3 -2 -2 -2 -2 -2 -2 -2 -2 -2 -2 -2 -2 -2 -2 -2 -2 -2 -2 -2 -2 -1 -1 -1 -1 -1 -1 -1 -0 -0 -0 -0
-3 -3 -3 -3 -3 -3 -3 -3 -3 -3 -3 -3 -2 -2 -2 -2 -2 -2 -2 -3 -3 -3 -2 -2 -2 -2 -2 -2 -1 -1 -1 -1 -1 -1 -0 -0 -0 -0
-4 -4 -4 -4 -4 -4 -4 -3 -3 -3 -3 -3 -3 -3 -2 -2 -2 -2 -2 -2 -2 -2 -2 -2 -2 -2 -2 -2 -2 -2 -2 -1 -1 -1 -1 -1 -0 -1
-4 -4 -4 -4 -4 -4 -4 -4 -4 -4 -3 -3 -3 -3 -3 -3 -3 -2 -2 -2 -2 -2 -2 -2 -2 -2 -2 -3 -3 -2 -2 -2 -2 -1 -1 -1 -1 -1
-4 -4 -4 -4 -4 -4 -4 -4 -4 -4 -4 -4 -4 -4 -3 -3 -3 -3 -3 -2 -2 -2 -2 -2 -2 -2 -2 -2 -2 -2 -2 -2 -2 -2 -2 -2 -1 -1
-4 -4 -4 -4 -4 -4 -4 -4 -4 -4 -4 -4 -4 -4 -4 -3 -3 -3 -3 -3 -3 -3 -2 -2 -2 -2 -2 -3 -3 -3 -3 -2 -2 -2 -2 -2 -2 -2
-4 -4 -4 -4 -5 -5 -5 -5 -5 -5 -4 -4 -4 -4 -4 -4 -4 -3 -3 -3 -3 -3 -3 -3 -3 -2 -2 -3 -3 -3 -3 -2 -2 -2 -2 -2 -2 -2
-5 -5 -5 -5 -5 -5 -5 -5 -5 -5 -5 -5 -4 -4 -4 -4 -4 -4 -3 -3 -3 -3 -3 -3 -3 -3 -3 -3 -3 -3 -3 -3 -2 -2 -2 -2 -2 -2
-5 -5 -5 -5 -5 -5 -5 -5 -5 -5 -5 -5 -4 -4 -4 -4 -4 -4 -4 -4 -4 -3 -3 -3 -3 -3 -3 -3 -3 -3 -3 -3 -2 -2 -2 -2 -2 -2
-5 -5 -5 -5 -5 -5 -5 -5 -5 -5 -5 -5 -4 -4 -4 -4 -4 -4 -4 -4 -4 -4 -3 -3 -3 -3 -3 -3 -3 -3 -3 -3 -3 -3 -2 -2 -3 -3
-5 -5 -5 -5 -5 -5 -5 -5 -5 -5 -5 -5 -4 -4 -4 -4 -4 -4 -4 -4 -4 -3 -3 -3 -3 -3 -3 -3 -3 -3 -3 -3 -3 -3 -3 -3 -3 -3
-5 -5 -5 -5 -5 -5 -5 -5 -5 -5 -5 -4 -4 -4 -4 -4 -4 -4 -4 -4 -4 -4 -3 -3 -3 -3 -3 -3 -3 -3 -3 -3 -3 -3 -3 -3 -3 -3
Wind_Speed
4 4 4 4 3 4 4 4 4 4 5 3 2 3 4 5 7 7 7 10 10 10 10 10 10 11 11 11 12 12 13 14 14 14 14 14 15 15
3 4 4 4 4 4 4 4 4 5 5 3 3 3 4 5 8 7 8 11 11 10 10 10 10 11 11 11 12 12 13 14 14 14 14 14 14 15
3 4 4 4 4 4 4 4 4 4 6 5 3 4 4 5 6 6 7 7 8 10 11 10 10 10 11 11 12 13 13 13 13 13 13 14 14 14
4 4 4 4 4 4 4 4 4 4 4 6 4 4 4 4 5 5 5 7 7 10 11 11 11 11 11 12 12 12 13 13 12 12 13 13 13 13
4 4 4 4 4 4 4 4 3 3 3 4 5 4 3 4 4 5 5 5 6 8 9 10 11 11 12 12 13 13 12 12 12 12 12 12 12 12
4 4 4 4 4 4 4 4 3 3 2 3 4 4 4 3 3 4 5 4 5 6 8 9 10 11 11 12 12 12 12 12 12 12 11 11 11 11
3 4 4 5 5 5 4 3 3 2 2 3 4 4 4 3 4 3 5 5 5 4 4 5 5 5 7 10 11 11 12 12 12 11 10 9 10 10
3 3 3 4 5 6 7 6 4 3 4 4 4 5 5 4 4 4 5 5 5 2 3 5 4 5 6 6 10 11 11 11 11 10 9 9 9 9
3 3 3 3 4 3 5 5 5 6 6 5 5 5 5 5 4 4 4 5 5 4 4 5 4 5 5 7 10 10 10 10 9 9 8 8 8 8
2 3 3 4 3 4 3 3 3 4 5 4 4 5 5 4 4 4 5 4 5 4 3 4 4 4 6 6 9 9 10 10 9 8 7 7 7 7
3 3 3 3 5 5 3 3 3 4 4 5 5 6 6 6 4 2 3 3 5 4 2 2 3 4 5 5 6 8 9 9 8 7 7 7 6 5
2 3 4 4 5 5 2 2 3 4 3 4 5 5 4 4 5 3 3 4 4 3 2 2 3 3 3 3 3 5 6 7 7 7 7 6 5 3
2 2 3 5 6 6 4 2 4 4 2 3 3 3 3 3 3 3 3 3 4 4 3 2 2 2 3 4 3 3 4 4 4 5 5 5 5 3
2 2 3 5 6 6 5 4 6 5 2 2 2 3 3 3 3 3 3 3 3 5 4 3 3 3 3 4 4 3 4 4 3 3 3 4 4 4
2 4 5 5 5 4 5 5 4 2 2 2 2 3 3 3 3 3 3 3 3 3 3 3 2 2 2 3 3 3 4 4 3 2 2 2 2 2
2 3 4 5 4 4 3 3 2 2 2 2 3 3 3 3 3 3 3 3 3 3 3 3 1 2 2 3 3 3 3 2 3 3 2 1 2 2
1 1 1 2 2 2 2 2 2 2 2 2 2 3 3 3 3 3 3 3 2 3 4 3 3 2 1 2 2 2 2 2 2 2 2 2 2 2
1 1 1 2 2 2 2 2 2 2 2 2 2 2 3 3 3 3 2 2 3 3 3 3 3 3 2 2 2 2 2 2 2 2 1 1 2 2
1 1 2 2 2 2 2 3 3 3 2 2 3 3 3 3 3 3 3 2 3 3 3 3 2 2 2 3 3 4 2 2 2 2 1 1 1 1
1 2 2 2 2 3 3 3 3 3 3 3 3 2 2 2 3 3 2 2 2 3 2 2 2 2 1 2 1 3 5 3 2 1 2 1 1 1
2 2 2 2 2 3 3 3 3 3 3 3 3 3 2 2 2 2 2 2 2 2 2 2 3 4 2 1 1 3 4 6 4 2 1 1 1 2
2 2 2 3 3 3 3 3 3 3 3 2 3 2 2 2 2 2 2 2 1 1 1 2 3 2 2 2 2 2 3 4 6 8 7 4 1 1
3 3 3 3 3 3 3 3 3 3 3 2 2 2 2 2 2 2 2 1 0 0 1 1 2 2 2 2 2 2 3 4 4 5 5 8 7 5
Wind_Direction
239 240 243 245 243 244 239 235 241 274 280 253 260 276 292 296 301 306 302 304 304 304 302 302 304 303 301 301 303 303 303 302 300 295 291 289 286 286
247 245 243 246 245 242 237 239 236 248 267 262 265 284 292 300 301 305 303 307 306 305 303 303 304 304 303 301 300 301 300 299 296 293 290 287 287 287
258 254 255 248 241 240 237 241 241 239 264 282 280 288 286 292 302 302 303 302 301 304 301 302 301 301 301 302 301 301 301 300 296 293 291 289 288 288
260 259 263 264 254 242 235 241 244 237 252 278 291 294 292 291 297 300 306 304 296 301 302 302 300 300 299 300 301 302 303 302 299 294 292 291 292 294
251 252 260 262 268 261 246 244 244 246 246 265 286 293 299 303 305 302 301 300 297 303 303 300 300 301 300 300 301 302 303 302 300 298 294 290 292 295
255 252 251 252 256 262 258 250 243 239 240 262 281 293 296 299 297 304 309 302 300 309 306 299 299 300 300 300 300 302 302 302 300 297 295 290 289 291
268 262 260 266 269 274 268 260 253 245 255 264 275 288 289 300 298 294 293 299 297 291 296 299 304 303 301 301 305 305 302 300 299 295 293 293 292 289
270 275 273 274 282 286 285 276 261 256 258 260 268 275 282 280 284 289 291 300 305 294 293 298 303 299 301 299 302 305 305 305 300 294 291 293 297 298
271 278 288 290 299 287 292 301 296 284 271 264 265 269 274 281 282 286 285 288 287 292 295 294 296 292 301 301 303 304 307 309 306 304 300 297 300 299
286 276 272 278 286 291 289 306 301 297 286 271 259 267 271 272 267 266 270 281 290 293 283 283 290 291 302 307 306 308 313 313 309 309 313 310 308 305
293 290 289 278 296 306 307 300 305 308 310 293 284 286 289 290 293 292 290 299 300 298 277 261 281 298 299 295 308 311 315 315 316 319 321 321 316 311
301 301 303 308 311 319 310 292 296 300 313 325 320 317 312 306 303 286 270 282 295 291 268 267 283 308 309 293 308 326 326 326 329 328 330 332 333 337
301 308 304 317 321 325 327 305 293 305 313 316 318 319 323 321 320 311 289 268 272 275 273 270 278 283 277 296 305 315 328 331 333 329 328 339 348 357
285 289 294 314 321 325 325 317 316 319 316 320 324 323 319 314 313 315 312 297 275 267 270 268 267 279 287 296 301 313 324 334 338 331 338 338 347 353
294 305 315 322 324 322 322 323 327 327 319 315 309 306 305 302 310 316 322 325 327 320 308 282 269 276 279 283 293 308 315 321 337 338 348 358 359 4
314 323 331 331 326 318 322 326 324 307 299 291 293 302 312 317 318 317 314 315 328 332 346 355 326 294 289 288 284 302 314 313 332 342 346 357 19 29
310 339 338 333 338 339 333 330 330 323 314 305 297 303 310 316 317 319 318 320 317 319 332 339 352 358 319 286 294 310 321 328 324 338 359 9 13 22
352 331 316 315 312 315 316 318 317 314 309 302 300 301 306 310 315 319 322 322 323 325 326 329 336 345 354 10 347 311 326 327 336 353 9 41 16 7
347 302 289 293 297 300 300 300 301 304 302 297 296 295 298 306 309 310 316 322 326 331 334 336 346 357 0 346 345 2 347 343 348 2 8 35 38 2
327 300 295 292 289 291 293 296 296 301 303 300 299 297 295 297 299 305 310 312 318 326 339 356 359 345 312 291 310 343 359 358 356 352 358 32 45 20
311 301 293 290 289 289 288 286 282 284 288 291 295 299 298 293 291 296 298 302 315 325 331 327 309 316 323 18 35 10 9 20 26 12 359 45 43 45
303 300 296 291 289 285 283 284 286 286 288 288 292 296 297 290 284 285 287 291 302 306 315 327 342 2 26 42 30 17 14 16 29 39 41 44 87 77
297 298 296 294 289 286 283 283 284 286 287 289 291 292 292 293 294 294 293 286 303 16 9 357 6 27 30 36 40 33 32 28 33 44 46 43 50 50
Height
1452 1453 1453 1453 1453 1453 1453 1453 1452 1448 1446 1445 1446 1445 1445 1444 1443 1441 1439 1438 1437 1435 1434 1434 1433 1432 1431 1431 1430 1429 1428 1427 1425 1424 1423 1423 1423 1423
1448 1448 1448 1448 1449 1449 1448 1448 1447 1446 1443 1441 1441 1441 1440 1439 1438 1436 1435 1433 1432 1430 1429 1428 1427 1427 1426 1425 1425 1423 1422 1421 1419 1418 1418 1417 1417 1417
1443 1444 1443 1444 1443 1444 1443 1443 1443 1442 1439 1437 1437 1436 1435 1434 1433 1432 1430 1429 1427 1426 1424 1423 1422 1422 1421 1420 1419 1418 1417 1415 1414 1413 1413 1412 1412 1412
1439 1439 1439 1439 1439 1439 1438 1438 1437 1437 1436 1433 1432 1431 1431 1430 1428 1427 1426 1424 1423 1421 1420 1419 1418 1417 1416 1415 1414 1413 1412 1410 1409 1408 1407 1407 1407 1406
1434 1434 1434 1435 1434 1434 1434 1433 1433 1432 1432 1430 1428 1427 1426 1425 1423 1422 1421 1420 1419 1417 1416 1414 1413 1412 1411 1410 1409 1408 1406 1405 1404 1403 1402 1402 1401 1401
1430 1430 1430 1430 1430 1430 1429 1429 1428 1428 1428 1426 1424 1423 1422 1421 1420 1418 1416 1415 1414 1413 1411 1410 1409 1407 1406 1405 1404 1403 1401 1400 1399 1398 1397 1396 1396 1396
1426 1426 1426 1426 1426 1426 1425 1425 1425 1424 1423 1422 1421 1420 1419 1418 1416 1414 1413 1411 1410 1409 1407 1406 1404 1402 1401 1400 1399 1397 1396 1395 1394 1393 1392 1392 1392 1392
1422 1422 1422 1422 1422 1422 1422 1421 1421 1420 1419 1418 1418 1417 1415 1415 1413 1412 1410 1408 1405 1405 1403 1401 1400 1398 1396 1395 1394 1393 1392 1391 1390 1389 1388 1388 1387 1387
1419 1419 1419 1419 1419 1418 1418 1417 1417 1417 1417 1416 1414 1413 1412 1411 1410 1408 1407 1405 1403 1402 1400 1396 1396 1394 1393 1391 1390 1389 1388 1386 1386 1385 1384 1384 1383 1383
1416 1416 1416 1415 1415 1415 1414 1413 1413 1413 1413 1411 1411 1410 1409 1408 1407 1406 1404 1402 1400 1399 1398 1394 1392 1390 1388 1387 1386 1385 1384 1383 1382 1381 1380 1380 1379 1379
1413 1413 1413 1412 1412 1412 1411 1410 1410 1409 1409 1408 1408 1407 1406 1405 1405 1403 1401 1399 1397 1395 1394 1392 1389 1386 1384 1382 1381 1380 1379 1379 1378 1377 1377 1377 1376 1376
1411 1410 1410 1410 1409 1409 1408 1407 1407 1406 1406 1405 1404 1403 1403 1402 1401 1401 1399 1397 1395 1392 1391 1390 1387 1385 1381 1379 1378 1377 1376 1375 1375 1374 1374 1374 1374 1374
1408 1407 1407 1407 1406 1406 1406 1405 1404 1404 1402 1401 1400 1400 1399 1399 1398 1397 1396 1395 1393 1390 1389 1388 1385 1383 1381 1378 1375 1374 1374 1373 1372 1372 1371 1371 1371 1371
1405 1405 1405 1404 1404 1403 1403 1403 1402 1401 1400 1399 1398 1397 1396 1396 1395 1394 1393 1391 1390 1388 1387 1386 1383 1381 1379 1376 1374 1372 1372 1371 1370 1369 1369 1369 1369 1370
1403 1403 1403 1402 1401 1401 1400 1400 1399 1398 1397 1396 1395 1395 1394 1393 1392 1391 1390 1388 1387 1385 1384 1383 1381 1379 1378 1375 1373 1371 1369 1368 1367 1367 1366 1367 1367 1368
1402 1401 1400 1399 1399 1398 1398 1397 1397 1396 1396 1395 1394 1393 1392 1391 1390 1388 1387 1386 1384 1383 1382 1381 1379 1378 1375 1374 1372 1370 1369 1368 1367 1366 1366 1366 1367 1368
1399 1399 1398 1397 1396 1395 1395 1395 1395 1394 1394 1393 1392 1391 1390 1389 1388 1387 1385 1384 1383 1381 1379 1378 1377 1376 1374 1373 1371 1370 1369 1368 1367 1366 1366 1366 1367 1367
1398 1396 1395 1395 1394 1393 1393 1393 1393 1392 1392 1391 1390 1389 1388 1387 1386 1385 1384 1383 1381 1380 1379 1377 1376 1375 1374 1372 1372 1370 1369 1368 1367 1367 1367 1366 1367 1368
1395 1394 1394 1393 1392 1392 1392 1391 1391 1390 1390 1389 1388 1387 1387 1386 1385 1383 1382 1381 1380 1379 1378 1377 1376 1375 1373 1372 1371 1371 1370 1368 1367 1367 1367 1367 1367 1367
1394 1393 1392 1391 1391 1390 1390 1389 1389 1388 1388 1387 1386 1386 1385 1384 1383 1382 1381 1380 1380 1379 1378 1377 1376 1375 1374 1374 1372 1371 1370 1369 1367 1367 1366 1367 1367 1368
1392 1391 1391 1390 1389 1389 1388 1387 1387 1386 1386 1385 1385 1384 1384 1383 1382 1381 1380 1380 1379 1378 1377 1377 1377 1376 1375 1374 1372 1371 1370 1370 1369 1368 1367 1367 1367 1367
1391 1390 1389 1388 1387 1387 1386 1386 1385 1385 1384 1384 1383 1383 1382 1381 1381 1380 1380 1379 1379 1378 1378 1377 1377 1376 1375 1374 1373 1372 1371 1371 1370 1369 1369 1369 1368 1367
1389 1388 1387 1387 1386 1385 1384 1384 1383 1383 1383 1382 1382 1381 1381 1380 1380 1379 1379 1379 1378 1378 1378 1377 1377 1376 1375 1375 1374 1373 1372 1371 1371 1370 1371 1371 1370 1370